| time (UTC) | temp C | wind direction | speed KPH | gust KPH | rain 1hr cm | rain 24hr cm | rain mn cm | humidity % | barometer mb |
| 20260507180025 | 25 | 132 | 1.6 | 0.0 | 0.00 | 0.10 | 0.10 | 84 | 1012.7 |
| 20260507174525 | 24 | 248 | 1.6 | 0.0 | 0.00 | 0.10 | 0.10 | 85 | 1012.9 |
| 20260507173024 | 23 | 168 | 1.6 | 0.0 | 0.00 | 0.10 | 0.10 | 88 | 1012.9 |
| 20260507171524 | 22 | 346 | 3.2 | 0.0 | 0.00 | 0.10 | 0.10 | 89 | 1013.0 |
| 20260507170024 | 22 | 113 | 0.0 | 0.0 | 0.00 | 0.10 | 0.10 | 91 | 1013.3 |
| 20260507164524 | 21 | 181 | 0.0 | 0.0 | 0.00 | 0.10 | 0.10 | 91 | 1013.5 |
| 20260507163023 | 21 | 146 | 0.0 | 0.0 | 0.00 | 0.10 | 0.10 | 92 | 1013.7 |
| 20260507161524 | 21 | 82 | 0.0 | 0.0 | 0.00 | 0.10 | 0.10 | 92 | 1013.8 |
| 20260507154523 | 20 | 228 | 0.0 | 0.0 | 0.00 | 0.10 | 0.10 | 93 | 1013.4 |
| 20260507153023 | 20 | 163 | 0.0 | 0.0 | 0.00 | 0.10 | 0.10 | 93 | 1013.4 |
| 20260507151523 | 20 | 165 | 0.0 | 0.0 | 0.00 | 0.10 | 0.10 | 93 | 1013.4 |
| 20260507144523 | 20 | 71 | 0.0 | 0.0 | 0.00 | 0.10 | 0.10 | 92 | 1013.5 |
| 20260507143022 | 20 | 169 | 0.0 | 0.0 | 0.00 | 0.10 | 0.10 | 93 | 1013.4 |
| 20260507141522 | 20 | 169 | 0.0 | 0.0 | 0.00 | 0.10 | 0.10 | 92 | 1013.5 |
| 20260507140022 | 21 | 206 | 0.0 | 0.0 | 0.00 | 0.10 | 0.10 | 93 | 1013.2 |
| 20260507134521 | 21 | 206 | 0.0 | 0.0 | 0.03 | 0.10 | 0.10 | 92 | 1013.0 |
| 20260507133021 | 21 | 206 | 0.0 | 0.0 | 0.03 | 0.10 | 0.10 | 92 | 1012.9 |
| 20260507131521 | 21 | 205 | 0.0 | 0.0 | 0.05 | 0.10 | 0.10 | 92 | 1012.7 |
| 20260507130021 | 21 | 207 | 0.0 | 0.0 | 0.05 | 0.10 | 0.10 | 92 | 1012.7 |
| 20260507123020 | 22 | 254 | 0.0 | 0.0 | 0.05 | 0.08 | 0.08 | 92 | 1012.2 |
| 20260507121520 | 22 | 254 | 0.0 | 0.0 | 0.03 | 0.05 | 0.05 | 92 | 1011.9 |
| 20260507120020 | 23 | 232 | 0.0 | 0.0 | 0.03 | 0.05 | 0.05 | 92 | 1011.6 |
| 20260507114520 | 23 | 232 | 0.0 | 0.0 | 0.03 | 0.05 | 0.05 | 91 | 1011.0 |
| 20260507113020 | 23 | 232 | 0.0 | 0.0 | 0.03 | 0.03 | 0.03 | 91 | 1010.9 |
| 20260507104519 | 25 | 243 | 0.0 | 0.0 | 0.03 | 0.03 | 0.03 | 92 | 1010.4 |
| 20260507103019 | 25 | 243 | 0.0 | 0.0 | 0.00 | 0.00 | 0.00 | 92 | 1010.0 |
| 20260507100018 | 25 | 181 | 0.0 | 0.0 | 0.00 | 0.00 | 0.00 | 92 | 1009.8 |
| 20260507094518 | 25 | 123 | 0.0 | 0.0 | 0.00 | 0.00 | 0.00 | 92 | 1009.7 |
| 20260507093019 | 25 | 332 | 3.2 | 0.0 | 0.00 | 0.00 | 0.00 | 92 | 1009.6 |
| 20260507090018 | 25 | 212 | 0.0 | 0.0 | 0.00 | 0.00 | 0.00 | 92 | 1009.6 |
| 20260507084517 | 25 | 287 | 0.0 | 0.0 | 0.00 | 0.00 | 0.00 | 92 | 1009.6 |
| 20260507083018 | 25 | 182 | 1.6 | 0.0 | 0.00 | 0.00 | 0.00 | 92 | 1009.6 |
| 20260507081517 | 25 | 191 | 0.0 | 0.0 | 0.00 | 0.00 | 0.00 | 92 | 1009.5 |
| 20260507080017 | 25 | 285 | 3.2 | 0.0 | 0.00 | 0.00 | 0.00 | 92 | 1009.5 |
| 20260507074517 | 25 | 286 | 0.0 | 0.0 | 0.00 | 0.00 | 0.00 | 92 | 1009.6 |
| 20260507073017 | 25 | 101 | 0.0 | 0.0 | 0.00 | 0.00 | 0.00 | 92 | 1009.8 |
| 20260507071516 | 25 | 169 | 1.6 | 0.0 | 0.00 | 0.00 | 0.00 | 91 | 1009.9 |
| 20260507070017 | 25 | 284 | 3.2 | 0.0 | 0.00 | 0.00 | 0.00 | 91 | 1010.2 |
| 20260507064516 | 25 | 151 | 0.0 | 0.0 | 0.00 | 0.00 | 0.00 | 91 | 1010.2 |
| 20260507063016 | 26 | 136 | 0.0 | 0.0 | 0.00 | 0.00 | 0.00 | 91 | 1010.3 |
| 20260507061515 | 26 | 309 | 0.0 | 0.0 | 0.00 | 0.00 | 0.00 | 91 | 1010.4 |
| 20260507060015 | 26 | 311 | 0.0 | 0.0 | 0.00 | 0.00 | 0.00 | 91 | 1010.4 |
| 20260507054515 | 26 | 185 | 0.0 | 0.0 | 0.00 | 0.00 | 0.00 | 91 | 1010.3 |
| 20260507053015 | 26 | 289 | 0.0 | 0.0 | 0.00 | 0.00 | 0.00 | 91 | 1010.3 |
| 20260507051516 | 26 | 288 | 1.6 | 0.0 | 0.00 | 0.00 | 0.00 | 91 | 1010.4 |
| 20260507050044 | 26 | 125 | 0.0 | 0.0 | 0.00 | 0.00 | 0.00 | 91 | 1010.3 |
| 20260507044544 | 26 | 245 | 3.2 | 0.0 | 0.00 | 0.00 | 0.00 | 91 | 1010.2 |
| 20260507043014 | 26 | 228 | 1.6 | 0.0 | 0.00 | 0.00 | 0.00 | 91 | 1010.0 |
| 20260507041514 | 26 | 295 | 4.8 | 0.0 | 0.00 | 0.00 | 0.00 | 91 | 1009.6 |
| 20260507040044 | 26 | 181 | 0.0 | 0.0 | 0.00 | 0.00 | 0.00 | 91 | 1009.5 |
| 20260507033043 | 26 | 112 | 1.6 | 0.0 | 0.00 | 0.00 | 0.00 | 90 | 1009.6 |
| 20260507031513 | 26 | 134 | 0.0 | 0.0 | 0.00 | 0.00 | 0.00 | 90 | 1009.8 |
| 20260507030043 | 26 | 139 | 1.6 | 0.0 | 0.00 | 0.00 | 0.00 | 90 | 1009.7 |
| 20260507024543 | 26 | 116 | 3.2 | 0.0 | 0.00 | 0.00 | 0.00 | 90 | 1010.0 |
| 20260507023043 | 26 | 296 | 1.6 | 0.0 | 0.00 | 0.00 | 0.00 | 90 | 1010.3 |
| 20260507020042 | 26 | 110 | 1.6 | 0.0 | 0.00 | 0.00 | 0.00 | 89 | 1010.2 |
| 20260507014542 | 26 | 207 | 0.0 | 0.0 | 0.00 | 0.00 | 0.00 | 89 | 1009.9 |
| 20260507013042 | 26 | 171 | 1.6 | 0.0 | 0.00 | 0.00 | 0.00 | 88 | 1009.7 |
| 20260507011541 | 27 | 56 | 1.6 | 0.0 | 0.00 | 0.00 | 0.00 | 88 | 1009.7 |
| 20260507010041 | 27 | 140 | 3.2 | 0.0 | 0.00 | 0.00 | 0.00 | 87 | 1009.7 |
| 20260507004541 | 27 | 138 | 1.6 | 0.0 | 0.00 | 0.00 | 0.00 | 87 | 1009.6 |
| 20260507003048 | 27 | 177 | 0.0 | 0.0 | 0.00 | 0.00 | 0.00 | 86 | 1009.1 |
| 20260507001510 | 27 | 262 | 0.0 | 0.0 | 0.00 | 0.00 | 0.00 | 85 | 1008.8 |
| 20260507000041 | 27 | 234 | 1.6 | 0.0 | 0.00 | 0.00 | 0.00 | 85 | 1008.9 |
| 20260506234540 | 27 | 140 | 4.8 | 0.0 | 0.00 | 0.00 | 0.00 | 84 | 1009.1 |
| 20260506231540 | 28 | 104 | 0.0 | 0.0 | 0.00 | 0.00 | 0.00 | 83 | 1008.9 |
| 20260506223039 | 28 | 52 | 0.0 | 0.0 | 0.00 | 0.00 | 0.00 | 82 | 1008.7 |
| 20260506221539 | 29 | 34 | 0.0 | 0.0 | 0.00 | 0.00 | 0.00 | 82 | 1008.8 |
| 20260506220039 | 29 | 72 | 3.2 | 0.0 | 0.00 | 0.00 | 0.00 | 81 | 1009.3 |
| 20260506214539 | 30 | 134 | 3.2 | 0.0 | 0.00 | 0.00 | 0.00 | 80 | 1009.6 |
| 20260506213038 | 30 | 173 | 1.6 | 0.0 | 0.00 | 0.00 | 0.00 | 80 | 1009.6 |
| 20260506211545 | 30 | 5 | 3.2 | 0.0 | 0.00 | 0.00 | 0.00 | 79 | 1009.9 |
| 20260506210038 | 30 | 191 | 3.2 | 0.0 | 0.00 | 0.00 | 0.00 | 79 | 1009.9 |
| 20260506204538 | 30 | 184 | 9.7 | 0.0 | 0.00 | 0.00 | 0.00 | 79 | 1009.8 |
| 20260506203037 | 30 | 254 | 3.2 | 0.0 | 0.00 | 0.00 | 0.00 | 80 | 1010.0 |
| 20260506201538 | 30 | 132 | 3.2 | 0.0 | 0.00 | 0.00 | 0.00 | 79 | 1010.2 |
| 20260506200037 | 30 | 23 | 1.6 | 0.0 | 0.00 | 0.00 | 0.00 | 82 | 1010.4 |
| 20260506194537 | 29 | 5 | 0.0 | 0.0 | 0.00 | 0.00 | 0.00 | 83 | 1010.8 |
| 20260506193037 | 29 | 54 | 4.8 | 0.0 | 0.00 | 0.00 | 0.00 | 83 | 1011.2 |
| 20260506191537 | 29 | 169 | 6.4 | 0.0 | 0.00 | 0.00 | 0.00 | 84 | 1011.3 |
| 20260506190037 | 28 | 312 | 3.2 | 0.0 | 0.00 | 0.00 | 0.00 | 85 | 1011.5 |
| 20260506184536 | 28 | 167 | 4.8 | 0.0 | 0.00 | 0.00 | 0.00 | 85 | 1011.8 |
| 20260506183036 | 28 | 232 | 1.6 | 0.0 | 0.00 | 0.00 | 0.00 | 87 | 1012.0 |
| 20260506181536 | 28 | 71 | 3.2 | 0.0 | 0.00 | 0.00 | 0.00 | 87 | 1012.2 |